Regional Weather Roundup
Issued by NWS Wakefield, VA

Current Version | Previous Version | Text Only | Print | Product List | Glossary Off
Versions: 1 2 3 4 5 6 7 8 9 10 11 12 13 14 15 16 17 18 19 20 21 22 23 24 25 26 27

000
ASUS41 KAKQ 171016
RWRAKQ

REGIONAL WEATHER ROUNDUP
NATIONAL WEATHER SERVICE WAKEFIELD VA
600 AM EDT THU AUG 17 2017

Note: "fair" indicates few or no clouds below 12,000 feet with no
significant weather and/or obstructions to visibility. * = Denotes
station may not report precipitation (e.g., rain,snow,etc.),
thunder or fog.

VAZ042-051-052>054-056-171100-
NORTHERN VIRGINIA

CITY           SKY/WX    TMP DP  RH WIND       PRES   REMARKS
WASH NATIONAL  PTCLDY    77  76  96 S7        30.01R
DULLES         PTCLDY    70  70 100 CALM      30.01R
FORT BELVOIR   CLOUDY    72  71  95 CALM      30.00S
QUANTICO       CLOUDY    77  75  93 CALM      30.01S
FREDERICKSBRG* CLEAR     73  73 100 CALM      30.00S FOG
STAFFORD*      FOG       70  70 100 CALM      30.05S VSB 1
WARRENTON      NOT AVBL
CULPEPER*      FOG       69  69 100 CALM      30.02R VSB 3/4
MANASSAS*      CLOUDY    69  68  96 CALM      30.01S
LEESBURG*      CLEAR     72  70  94 CALM      30.03R
WINCHESTER     CLEAR     64  64 100 CALM      30.03R FOG
FRONT ROYAL*   MOSUNNY   66  66 100 CALM      30.02R
LURAY*         FOG       66  66 100 CALM      30.03S VSB 1/2
$$

VAZ048-049-060>072-079>083-171100-
CENTRAL AND SOUTH CENTRAL VIRGINIA

CITY           SKY/WX    TMP DP  RH WIND       PRES   REMARKS
RICHMOND       MOCLDY    73  73 100 S3        30.02R FOG
CHESTERFIELD*  FAIR      72  71  97 CALM      30.03R FOG
PETERSBURG*    FOG       72  72 100 CALM      30.03S VSB 1/2
HANOVER        PTCLDY    70  67  90 CALM      30.03R FOG
TAPPAHANNOCK*  CLEAR    N/A N/A N/A CALM      30.03S
QUINTON*       FAIR      69  69 100 E3        30.01S FOG
CHARLOTTSVILLE PTCLDY    70  69  97 CALM      30.02S FOG
GORDONSVILLE*  SUNNY     69  69 100 CALM      30.01S
ORANGE*        CLEAR     68  68 100 CALM      30.02R FOG
LOUISA*        CLEAR     70  68  94 S3        30.01S FOG
BUMPASS*       FAIR      71  71 100 CALM      30.02S
FARMVILLE*     MOCLDY    72  70  93 CALM      30.01S FOG
CREWE*         FAIR      70  66  87 CALM      30.02S
FORT PICKETT*  FAIR     N/A N/A N/A CALM      30.02F
CHASE CITY*    PTSUNNY   71  71  99 CALM      30.03S
CLARKSVILLE*   FAIR      72  72 100 CALM      30.02S
SOUTH HILL*    CLEAR     68  68 100 CALM      30.09R
LAWRENCEVILLE* CLOUDY    73  72  97 CALM      30.03R VSB 1/4
EMPORIA*       CLOUDY    72  72 100 CALM      30.04R
$$

VAZ088>098-171100-
SOUTHEAST VIRGINIA

CITY           SKY/WX    TMP DP  RH WIND       PRES   REMARKS
NORFOLK        CLEAR     74  72  93 SW5       30.02S
VIRGINIA BEACH CLOUDY    71  70  96 CALM      30.02R FOG
NORFOLK NAVAL  PTCLDY    73  71  93 CALM      30.03S
WEST POINT*    CLEAR     74  73  96 CALM      30.03S
SALUDA*        FAIR      74  74 100 SW5       30.01S
NEWPORT NEWS   CLEAR     72  71  97 SW3       30.02S
LANGLEY AFB    CLEAR     72  72 100 SW5       30.02R
FORT EUSTIS    PTCLDY    74  73  95 S3        30.00S
WILLIAMSBURG*  CLEAR     75  75 100 CALM      30.03S
HR EXEC AP*      N/A     66  63  88 CALM      30.01S VSB 1/4
FRANKLIN*      FOG       70  70  99 CALM      30.03S VSB 1/2
US460-WAKEFLD  CLOUDY    72  72 100 CALM      30.03R FOG
$$

VAZ020-022-025-037-045-171100-
WEST CENTRAL AND SOUTHWEST VIRGINIA

CITY           SKY/WX    TMP DP  RH WIND       PRES   REMARKS
STAUNTON*      FOG       63  63  99 CALM      30.07R VSB 1/2
WAYNESBORO*    MOSUNNY   66  66 100 CALM      30.05S
HOT SPRINGS VA CLEAR     66  63  88 W8        30.18R
LYNCHBURG      MOCLDY    70  70 100 CALM      30.03S FOG
DANVILLE       CLOUDY    74  74 100 CALM      30.03S
SOUTH BOSTON*  CLOUDY    71  70  96 CALM      30.03R
MARTINSVILLE   CLOUDY    71  70  96 CALM      30.06S FOG
ROANOKE        MOCLDY    73  70  90 CALM      30.07R
BLACKSBURG     PTCLDY    69  69  98 CALM      30.14R
DUBLIN*        CLOUDY    69  69 100 CALM      30.12R
MARION*        HAZE      67  62  83 CALM      30.16R VSB 1/4
HILLSVILLE*    CLEAR     67  63  86 CALM      30.13R
RICHLANDS*     FAIR      67  63  84 S3        30.14R
WISE*            N/A     66  66 100 SW3       30.14R FOG
ABINGDON*      PTCLDY    70  70 100 CALM      30.11R FOG
$$

MDZ021>025-VAZ099-100-171100-
SOUTHERN MARYLAND AND THE DELMARVA PENINSULA

CITY           SKY/WX    TMP DP  RH WIND       PRES   REMARKS
PATUXENT RIVER CLOUDY    76  71  85 SW7       30.00S
BAY BRIDGE APT PTCLDY    75  73  94 E3        30.00S FOG
LEONARDTOWN    CLOUDY    73  70  88 CALM      30.03R
DOVER          CLEAR     70  68  94 CALM      30.00S
GEORGETOWN     CLOUDY    72  70  93 CALM      30.02S FOG
EASTON         PTCLDY    73  72  94 CALM      30.05R
CAMBRIDGE      FOG       73  73 100 CALM      30.01S VSB 1
SALISBURY      CLOUDY    72  72 100 SE3       30.02R
OCEAN CITY     CLOUDY    73  72  96 CALM      30.03R
WALLOPS ISLAND CLOUDY    73  73 100 CALM      30.03R
ACCOMACK*      CLOUDY    73  73  98 CALM      30.02S
$$

NCZ012>017-030>032-171100-
NORTH CENTRAL AND EASTERN NORTH CAROLINA

CITY           SKY/WX    TMP DP  RH WIND       PRES   REMARKS
ROANOKE RAPIDS FOG       72  72 100 CALM      30.02S VSB<1/4
RALEIGH        PTCLDY    76  73  91 CALM      30.02S
ELIZABETH CITY FOG       69  69 100 CALM      30.03R VSB 1/2
AHOSKIE*         N/A     70  70  99 CALM      30.03R FOG
EDENTON*       CLEAR     73  71  93 CALM      30.04R
CURRITUCK*     FOG      N/A N/A N/A CALM      30.04R VSB 1
KILL DEVIL HLS CLEAR     72  72 100 CALM      30.02R FOG
MANTEO         CLEAR     70  70  99 CALM      30.03R FOG
CAPE HATTERAS  PTCLDY    73  73 100 CALM      30.02S
TARBORO*       NOT AVBL
GOLDSBORO      MOCLDY    75  73  92 SW1       30.02R FOG
WASHINGTON     CLEAR     74  73  98 CALM      30.03R
GREENVILLE     CLOUDY    77  77 100 CALM      30.03S FOG
NEW BERN       CLEAR     75  75 100 CALM      30.03S
WILMINGTON     MOCLDY    75  74  96 CALM      30.01S
$$

VAZ048-171100-
ELSEWHERE

CITY           SKY/WX    TMP DP  RH WIND       PRES   REMARKS
HARRISBURG PA  PTCLDY    66  65  96 CALM      30.02S
BALTIMORE      PTCLDY    70  70 100 CALM      30.01R
ANNAPOLIS      CLEAR     78  78 100 CALM      30.00R FOG
ANDREWS AFB    PTCLDY    72  72 100 CALM      30.01R FOG
PHILADELPHIA   PTCLDY    71  63  75 NE5       30.03R
HENDERSON NC   PTCLDY    70  68  95 S3        30.03S
GREENSBORO     PTCLDY    75  74  96 CALM      30.04R
ROCKY MOUNT    FOG       74  74 100 CALM      30.02R VSB 1/4
$$

VAZ100-171100-
MARINE

STATION/POSITION TIME  TEMP    WIND        PRES    WAVE   SWELL
                       AIR SEA DIR/SP/G            HT/PER HT/PER
                 (UTC) (F)     (DEG/KT/KT) (MB)    (FT/S) (FT/S)
BRANDYWINE LGT   0942   77     330/  3/  4 1016.7R
CAPE MAY NJ      0942   75 78  330/  2/  5 1015.9R
LEWES DE         0942   72 77  240/  2/  3 1016.2R
15NM E FENWICK I 0950   77 77  260/  6/  6 1016.9R   2/ 8   2/ 8
OCEAN-CITY-INLET 0942   75 78  270/  4/  5 1017.0R
WACHAPREAGUE VA  0942   74 81  260/  2/  3 1016.5R
THOMAS POINT MD  1000   79 80  210/  7/  7   N/A
GOOSES REEF MD   1000   79 79  190/  8/  8 1016.8    0
COVE POINT MD    0942   77     180/  4/  5 1016.9R
SOLOMONS ISLAND  0942   78 81  220/ 11/ 13   N/A
BISHOPS HEAD MD  0942   80 83  220/  6/  7 1016.5R
PINEY POINT MD   0942          260/  3/  5   N/A
POTOMAC MD       1000   78 80  270/  8/ 10 1015.7    1/ 2
CAMBRIDGE MD     0942   77 82              1017.0R
LEWISETTA VA     0942   76 82  260/  6/  8 1016.1R
RAPPAHANNOCK LGT 0942          210/  7/  8 1017.0R
STINGRAY PT      1000   77 81  240/ 10/ 10 1016.5    1
YORK RVR RNG VA  0942   77     240/  5/  5 1016.8R
YORKTOWN VA      0942   75 81  220/  4/  5 1016.1S
JAMESTOWN VA     1000      82  190/  2/  4   N/A     0
DOMINION TERM VA 0942   76     220/  5/  6 1016.6S
KIPTOPEKE VA     0942      79  230/  5/  6   N/A
CHES BAY BRIDGE  0942   76 78  260/  6/  7 1016.4S
CAPE HENRY VA    0942   74     210/  1/  3   N/A
WILLOUBY STN VA  0942   76      CALM  /  1 1016.6R
S CRANEY ISL VA  0942   75     220/  5/  6 1016.3S
CAPE HENRY BUOY  1000      78                N/A     2/ 8
1ST LANDING BUOY 1000   76 79              1016.6    1/ 4
64NM E OF VA BCH 0950   75 77  270/  2/  2 1017.4R   3/ 8   2/ 8
DUCK PIER NC     0942   76 79  120/  4/  5 1016.4R
44100 DUCK FRF   0905      78                N/A     2/ 7
44056 DUCK FRF   1000      78                N/A     2/ 8
OREGON INLET NC  0942   75 82   CALM  /  1 1016.5R
HATTERAS NC      0942   79 83   50/  3/  4 1016.4R
DIAMOND SHLS NC  0950   79 82  360/  8/ 10 1016.3R   2/ 8   2/ 8
CAPE LOOKOUT NC  1000   80      30/  3/  4 1016.4R
$$




USA.gov is the U.S. government's official web portal to all federal, state and local government web resources and services.